This is the latest recevied weather packets stored in our database for station/object LA3SP-1. If no packets are shown the sender has not sent any weather packets the latest 10 day(s).
| Time | Temp. | Humidity | Pressure | Rain* | Wind** | Luminosity | Snow |
|---|---|---|---|---|---|---|---|
| 1777770185 | 0° C | 79% | 1005.4 hPa | 0 mm | - | - | - |
| 1777768983 | 0.56° C | 79% | 1005.4 hPa | 0 mm | - | - | - |
| 1777768381 | 0.56° C | 79% | 1005.4 hPa | 0 mm | - | - | - |
| 1777767383 | 1.11° C | 79% | 1005.4 hPa | 0 mm | - | - | - |
| 1777767245 | 1.11° C | 79% | 1005.4 hPa | 0 mm | - | - | - |
| 1777767178 | 1.11° C | 79% | 1005.4 hPa | 0 mm | - | - | - |
| 1777766577 | 1.11° C | 79% | 1005.4 hPa | 0 mm | - | - | - |
| 1777765975 | 1.67° C | 80% | 1005.6 hPa | 0 mm | - | - | - |
| 1777764773 | 1.11° C | 80% | 1005.5 hPa | 0 mm | - | - | - |
| 1777764172 | 1.67° C | 81% | 1005.6 hPa | 0 mm | - | - | - |
| 1777763570 | 1.67° C | 82% | 1005.8 hPa | 0 mm | - | - | - |
| 1777761329 | 1.67° C | 81% | 1005.8 hPa | 0 mm | - | - | - |
| 1777761165 | 1.67° C | 81% | 1005.8 hPa | 0 mm | - | - | - |
| 1777760563 | 1.67° C | 80% | 1005.8 hPa | 0 mm | - | - | - |
| 1777759360 | 2.22° C | 79% | 1005.7 hPa | 0 mm | - | - | - |
| 1777758759 | 2.78° C | 79% | 1005.8 hPa | 0 mm | - | - | - |
| 1777758157 | 2.78° C | 79% | 1005.8 hPa | 0 mm | - | - | - |
| 1777756955 | 2.78° C | 80% | 1005.8 hPa | 0 mm | - | - | - |
| 1777756354 | 2.78° C | 79% | 1005.8 hPa | 0 mm | - | - | - |
| 1777755752 | 2.78° C | 79% | 1005.9 hPa | 0 mm | - | - | - |
| 1777754549 | 2.78° C | 79% | 1005.9 hPa | 0 mm | - | - | - |
| 1777753948 | 2.78° C | 79% | 1005.9 hPa | 0 mm | - | - | - |
| 1777752745 | 2.78° C | 79% | 1005.9 hPa | 0 mm | - | - | - |
| 1777752144 | 2.78° C | 79% | 1006 hPa | 0 mm | - | - | - |
| 1777751542 | 2.78° C | 79% | 1006 hPa | 0 mm | - | - | - |
* Rain latest 24 hours (hover to see other rain measurements)
** Current wind speed in m/s (hover to see current wind gust speed)